Regional Weather Roundup
Issued by NWS Midland/Odessa, TX

Skip options and go directly to product.
Home | Oldest Version | Previous Version | Current Version | All | Text Only | Save Text | Print | Product List | Glossary On

Skip product version selection by date and time.   
998
ASUS44 KMAF 100010
RWRMAF
MIDLAND AREA WEATHER ROUNDUP
NATIONAL WEATHER SERVICE MIDLAND TX
600 PM CST TUE FEB 09 2016

...IN SOUTHWEST TEXAS AND SOUTHEAST NEW MEXICO...

CITY           SKY/WX    TMP DP  RH WIND       PRES   REMARKS
ALPINE         CLEAR     62  14  15 SW5       30.36R
ANDREWS        FAIR     N/A N/A N/A W3        30.31R
ARTESIA        CLEAR     61  19  20 SE8       30.29R
BIG SPRING     CLEAR     61  24  23 NW6       30.33R
CARLSBAD       CLEAR     61  20  20 SE8       30.27R
DRYDEN           N/A     68  19  15 SW6       30.27R
FORT STOCKTON  CLEAR     65  21  18 E7        30.27S
GUAD PASS      CLEAR     58  13  17 SW12      30.33S
HOBBS          CLEAR     59  16  18 CALM      30.31R
MARFA          CLEAR     60  13  15 SE7       30.33R
MIDLAND AIRPK  CLEAR     64  20  18 CALM      30.31R
MIDLAND INTL   CLEAR     64  21  19 NW3       30.30R
ODESSA         CLEAR     63  19  18 S3        30.31R
PECOS          CLEAR     65  24  21 E3        30.27S
PRESIDIO       FAIR      67  19  16 MISG      30.26R
SEMINOLE       CLEAR     61  19  19 CALM      30.32R
SNYDER           N/A     65  24  21 W6        30.28F
WINK           CLEAR     63  22  20 S5        30.27S
$$
...OTHER STATIONS IN TEXAS...

CITY           SKY/WX    TMP DP  RH WIND       PRES   REMARKS
ABILENE        CLEAR     67  26  21 NW12      30.24R
AMARILLO       CLEAR     59  20  22 NW8       30.28R
AUSTIN         CLEAR     70  27  20 NW8       30.22S
BROWNSVILLE    CLEAR     63  34  33 E9        30.29F
CORPUS CHRISTI PTCLDY    72  24  16 NW9       30.26R
DALLAS FTW     PTCLDY    58  24  27 N17       30.26R
DEL RIO        CLEAR     72  21  14 CALM      30.25S
EL PASO        CLEAR     65  17  15 CALM      30.27S
HOUSTON INT    CLEAR     62  25  24 NW8       30.22R
LUBBOCK        CLEAR     62  19  19 W7        30.28S
SAN ANGELO     CLEAR     67  24  19 N7        30.28R
SAN ANTONIO    CLEAR     69  28  21 NW6       30.25R
WACO           CLEAR     63  30  28 N8        30.22S
WICHITA FALLS  NOT AVBL
$$
...OTHER LOCATIONS IN NEW MEXICO...

CITY           SKY/WX    TMP DP  RH WIND       PRES   REMARKS
ALAMAGORDO     CLEAR     63  18  17 NW3       30.29R
ALBUQUERQUE    CLEAR     59  19  21 CALM      30.32R
CANNON AFB     CLEAR     61  15  16 S2        30.30R
CLOVIS         CLEAR     59  16  18 CALM      30.32R
HOLLOMAN AFB   CLEAR     62  19  18 W1        30.27S
ROSWELL        CLEAR     61  18  18 S8        30.28S
RUIDOSO        CLEAR     54  10  17 NW9       30.37R
SANTA FE       CLEAR     54  17  23 W8        30.32R
TRUTH OR CONSE CLEAR     64  17  16 E5        30.28R
TUCUMCARI      CLEAR     60  13  15 SE5       30.28R
$$

USA.gov is the U.S. government's official web portal to all federal, state and local government web resources and services.